Weather History for Bangor, ME

Change the Weather History Date:

Monday, July 15, 2013

  Actual Average Record
Temperature  
Mean Temperature 76 °F 69 °F  
Max Temperature 92 °F 80 °F 94 °F (1968)
Min Temperature 60 °F 58 °F 44 °F (1929)
Degree Days  
Heating Degree Days 0 1  
Month to date heating degree days 3 15  
Since 1 June heating degree days 103 122  
Since 1 July heating degree days 3 15  
Cooling Degree Days 11 4  
Month to date cooling degree days 99 58  
Year to date cooling degree days 164 116  
Since 1 June cooling degree days 156 110  
Growing Degree Days 26 (Base 50)    
Moisture  
Dew Point 63 °F    
Average Humidity 67    
Maximum Humidity 100    
Minimum Humidity 34    
Precipitation  
Precipitation 0.00 in 0.11 in 1.19 in (1945)
Month to date precipitation 1.11 1.60  
Year to date precipitation 17.86 21.41  
Snow  
Snow 0.00 in 0.00 in 0.00 in (2002)
Month to date snowfall 0.0 0.0  
Since 1 June snowfall 0.0 0.0  
Since 1 July snowfall 0.0 0.0  
Snow Depth 0.00 in    
Sea Level Pressure  
Sea Level Pressure 30.10 in    
Wind  
Wind Speed 3 mph (WNW)    
Max Wind Speed 14 mph    
Max Gust Speed 21 mph    
Visibility 10 miles    
Events      
T = Trace of Precipitation, MM = Missing Value Source: NWS Daily Summary

Daily Weather History Graph

Daily Weather History Graph

Search for Another Location

Airport:

Trip Planner

Search our weather history database for the weather conditions in past years. The results will help you decide how hot, cold, wet, or windy it might be!

Date:

Astronomy

Jul. 15, 2013 Rise Set
Actual Time 5:03 AM EDT 8:18 PM EDT
Civil Twilight 4:28 AM EDT 8:53 PM EDT
Nautical Twilight 3:41 AM EDT 9:39 PM EDT
Astronomical Twilight 2:44 AM EDT 10:36 PM EDT
Moon 12:40 PM EDT (7/15) 11:40 PM EDT (7/15)
Length of Visible Light 16h 25m
Length of Day
15h 14m
Waxing Crescent, 45% of the Moon is Illuminated
Jul 15
Waxing Crescent
Jul 15
First Quarter
Jul 22
Full
Jul 29
Last Quarter
Aug 6
New

Hourly Weather History & Observations

Time (EDT) Temp. Heat Index Dew Point Humidity Pressure Visibility Wind Dir Wind Speed Gust Speed Precip Events Conditions
12:53 AM 66.9 °F - 64.9 °F 93% 30.16 in 10.0 mi Calm Calm - N/A   Partly Cloudy
1:53 AM 64.9 °F - 64.0 °F 97% 30.15 in 9.0 mi Calm Calm - N/A   Partly Cloudy
2:53 AM 64.9 °F - 63.0 °F 93% 30.15 in 9.0 mi Calm Calm - N/A   Clear
3:12 AM 64.4 °F - 62.6 °F 94% 30.16 in 2.5 mi Calm Calm - N/A   Clear
3:21 AM 64.4 °F - 62.6 °F 94% 30.16 in 10.0 mi Calm Calm - N/A   Scattered Clouds
3:53 AM 64.0 °F - 62.1 °F 93% 30.15 in 10.0 mi Calm Calm - N/A   Scattered Clouds
4:53 AM 61.0 °F - 60.1 °F 97% 30.15 in 10.0 mi Calm Calm - N/A   Scattered Clouds
5:53 AM 64.9 °F - 63.0 °F 93% 30.14 in 7.0 mi Calm Calm - N/A   Scattered Clouds
6:53 AM 70.0 °F - 64.9 °F 84% 30.15 in 10.0 mi Calm Calm - N/A   Scattered Clouds
7:53 AM 73.9 °F - 66.0 °F 76% 30.15 in 10.0 mi West 3.5 mph - N/A   Scattered Clouds
8:53 AM 79.0 °F - 68.0 °F 69% 30.14 in 10.0 mi Variable 3.5 mph - N/A   Partly Cloudy
9:53 AM 82.0 °F 84.5 °F 66.9 °F 60% 30.13 in 10.0 mi WNW 8.1 mph - N/A   Partly Cloudy
10:53 AM 84.9 °F 86.6 °F 64.9 °F 51% 30.12 in 10.0 mi NW 6.9 mph - N/A   Partly Cloudy
11:53 AM 89.1 °F 90.0 °F 63.0 °F 42% 30.10 in 10.0 mi NNW 11.5 mph 20.7 mph N/A   Scattered Clouds
12:53 PM 90.0 °F 90.3 °F 62.1 °F 39% 30.09 in 10.0 mi WNW 9.2 mph - N/A   Scattered Clouds
1:53 PM 91.0 °F 91.5 °F 62.1 °F 38% 30.07 in 10.0 mi NW 12.7 mph 18.4 mph N/A   Scattered Clouds
2:53 PM 91.0 °F 90.9 °F 61.0 °F 36% 30.06 in 10.0 mi NW 9.2 mph - N/A   Scattered Clouds
3:53 PM 91.0 °F 90.2 °F 59.0 °F 34% 30.04 in 10.0 mi West 8.1 mph - N/A   Scattered Clouds
4:53 PM 91.0 °F 90.5 °F 60.1 °F 35% 30.03 in 10.0 mi WNW 9.2 mph - N/A   Scattered Clouds
5:53 PM 90.0 °F 90.0 °F 61.0 °F 38% 30.03 in 10.0 mi NW 6.9 mph - N/A   Scattered Clouds
6:53 PM 87.1 °F 88.9 °F 64.9 °F 48% 30.03 in 10.0 mi NW 3.5 mph - N/A   Partly Cloudy
7:53 PM 82.9 °F 83.7 °F 62.1 °F 49% 30.04 in 10.0 mi WNW 4.6 mph - N/A   Partly Cloudy
8:53 PM 82.0 °F 82.7 °F 61.0 °F 49% 30.05 in 10.0 mi WNW 6.9 mph - N/A   Partly Cloudy
9:53 PM 77.0 °F - 63.0 °F 62% 30.06 in 10.0 mi West 4.6 mph - N/A   Partly Cloudy
10:53 PM 77.0 °F - 63.0 °F 62% 30.07 in 10.0 mi West 6.9 mph - N/A   Clear
11:53 PM 73.9 °F - 63.0 °F 68% 30.07 in 10.0 mi West 3.5 mph - N/A   Clear